Location: Krakow
(50.0830°N, 19.9170°E)
Time: 17:21:41
(UTC+02:00)

Courier 1B - Pass Details

Date: 15 March 2026
Orbit: 962 x 1209 km, 28.3° (Epoch: 19 April)

Event Time Altitude Azimuth Distance (km) Brightness Sun altitude
Rises 10:47:49 0° 226° (SW) 3,860 10.9 36.2°
Reaches altitude 10° 10:53:35 10° 190° (S) 2,828 10.9 36.5°
Maximum altitude 10:54:47 11° 179° (S) 2,777 11.1 36.6°
Drops below altitude 10° 10:55:59 10° 169° (S) 2,799 11.2 36.6°
Sets 11:01:30 0° 132° (SE) 3,689 11.2 36.9°
